Time,TemperatureF,DewpointF,PressureIn,WindDirection,WindDirectionDegrees,WindSpeedMPH,WindSpeedGustMPH,Humidity,HourlyPrecipIn,Conditions,Clouds,dailyrainin,SolarRadiationWatts/m^2,SoftwareType,DateUTC
2013-03-20 00:00:00,37.5,32.8,29.75,West,264,8.0,8.0,83,0.00,,,0.00,0,Wunderground v.1.15,2013-03-20 04:00:00,
2013-03-20 00:05:00,37.4,32.7,29.75,WNW,284,8.0,8.0,83,0.00,,,0.00,0,Wunderground v.1.15,2013-03-20 04:05:00,
2013-03-20 00:15:00,37.3,32.6,29.76,WNW,300,8.0,8.0,83,0.00,,,0.00,0,Wunderground v.1.15,2013-03-20 04:15:00,
2013-03-20 00:20:00,37.3,32.6,29.76,WNW,294,8.0,8.0,83,0.00,,,0.00,0,Wunderground v.1.15,2013-03-20 04:20:00,
2013-03-20 00:25:00,37.3,32.6,29.76,WNW,301,7.0,9.0,83,0.00,,,0.00,0,Wunderground v.1.15,2013-03-20 04:25:00,
2013-03-20 00:30:00,37.2,32.5,29.76,West,273,8.0,9.0,83,0.00,,,0.00,0,Wunderground v.1.15,2013-03-20 04:30:00,
2013-03-20 00:40:00,37.2,32.5,29.76,WNW,287,8.0,8.0,83,0.00,,,0.00,0,Wunderground v.1.15,2013-03-20 04:40:00,
2013-03-20 00:50:00,37.1,32.4,29.76,West,273,9.0,14.0,83,0.00,,,0.00,0,Wunderground v.1.15,2013-03-20 04:50:00,
2013-03-20 01:00:00,37.0,32.3,29.76,NW,317,10.0,13.0,83,0.00,,,0.00,0,Wunderground v.1.15,2013-03-20 05:00:00,
2013-03-20 01:10:00,37.0,32.0,29.77,WNW,284,10.0,10.0,82,0.00,,,0.00,0,Wunderground v.1.15,2013-03-20 05:10:00,
2013-03-20 01:20:00,37.0,31.7,29.77,WSW,256,10.0,14.0,81,0.00,,,0.00,0,Wunderground v.1.15,2013-03-20 05:20:00,
2013-03-20 01:30:00,36.9,31.0,29.77,WNW,292,10.0,10.0,79,0.00,,,0.00,0,Wunderground v.1.15,2013-03-20 05:30:00,
2013-03-20 01:35:00,36.9,30.7,29.78,NW,308,11.0,11.0,78,0.00,,,0.00,0,Wunderground v.1.15,2013-03-20 05:35:00,
2013-03-20 01:40:00,36.9,29.7,29.78,NW,326,12.0,18.0,75,0.00,,,0.00,0,Wunderground v.1.15,2013-03-20 05:40:00,
2013-03-20 01:50:00,36.9,27.7,29.78,West,275,13.0,13.0,69,0.00,,,0.00,0,Wunderground v.1.15,2013-03-20 05:50:00,
2013-03-20 02:00:00,36.7,26.8,29.79,WNW,301,12.0,17.0,67,0.00,,,0.00,0,Wunderground v.1.15,2013-03-20 06:00:00,
2013-03-20 02:10:00,36.6,25.9,29.79,WNW,289,13.0,13.0,65,0.00,,,0.00,0,Wunderground v.1.15,2013-03-20 06:10:00,
2013-03-20 02:20:00,36.3,25.3,29.79,WNW,292,11.0,17.0,64,0.00,,,0.00,0,Wunderground v.1.15,2013-03-20 06:20:00,
2013-03-20 02:30:00,36.2,25.6,29.80,NW,313,11.0,12.0,65,0.00,,,0.00,0,Wunderground v.1.15,2013-03-20 06:30:00,
2013-03-20 02:35:00,36.2,25.6,29.80,WNW,301,11.0,12.0,65,0.00,,,0.00,0,Wunderground v.1.15,2013-03-20 06:35:00,
2013-03-20 02:40:00,35.9,25.6,29.80,WNW,290,10.0,10.0,66,0.00,,,0.00,0,Wunderground v.1.15,2013-03-20 06:40:00,
2013-03-20 02:50:00,35.4,25.5,29.80,West,268,7.0,7.0,67,0.00,,,0.00,0,Wunderground v.1.15,2013-03-20 06:50:00,
2013-03-20 02:55:00,34.9,26.1,29.80,West,267,6.0,7.0,70,0.00,,,0.00,0,Wunderground v.1.15,2013-03-20 06:55:00,
2013-03-20 03:00:00,34.4,26.0,29.80,West,267,6.0,6.0,71,0.00,,,0.00,0,Wunderground v.1.15,2013-03-20 07:00:00,
2013-03-20 03:10:00,34.1,25.3,29.80,WNW,288,8.0,8.0,70,0.00,,,0.00,0,Wunderground v.1.15,2013-03-20 07:10:00,
2013-03-20 03:20:00,34.2,25.1,29.81,WNW,292,9.0,9.0,69,0.00,,,0.00,0,Wunderground v.1.15,2013-03-20 07:20:00,
2013-03-20 03:25:00,34.3,24.8,29.81,WNW,284,9.0,9.0,68,0.00,,,0.00,0,Wunderground v.1.15,2013-03-20 07:25:00,
2013-03-20 03:30:00,34.3,24.8,29.81,West,267,8.0,8.0,68,0.00,,,0.00,0,Wunderground v.1.15,2013-03-20 07:30:00,
2013-03-20 03:40:00,34.0,24.5,29.81,WNW,296,8.0,8.0,68,0.00,,,0.00,0,Wunderground v.1.15,2013-03-20 07:40:00,
2013-03-20 03:45:00,34.0,24.5,29.82,WNW,296,9.0,9.0,68,0.00,,,0.00,0,Wunderground v.1.15,2013-03-20 07:45:00,
2013-03-20 03:55:00,33.8,24.7,29.82,WNW,285,8.0,10.0,69,0.00,,,0.00,0,Wunderground v.1.15,2013-03-20 07:55:00,
2013-03-20 04:05:00,33.7,24.6,29.82,WNW,287,9.0,9.0,69,0.00,,,0.00,0,Wunderground v.1.15,2013-03-20 08:05:00,
2013-03-20 04:15:00,34.0,24.2,29.82,WNW,287,10.0,10.0,67,0.00,,,0.00,0,Wunderground v.1.15,2013-03-20 08:15:00,
2013-03-20 04:25:00,34.1,24.6,29.82,WNW,296,9.0,13.0,68,0.00,,,0.00,0,Wunderground v.1.15,2013-03-20 08:25:00,
2013-03-20 04:35:00,33.9,24.4,29.83,WNW,300,9.0,15.0,68,0.00,,,0.00,0,Wunderground v.1.15,2013-03-20 08:35:00,
2013-03-20 04:40:00,33.6,24.2,29.83,WNW,290,7.0,7.0,68,0.00,,,0.00,0,Wunderground v.1.15,2013-03-20 08:40:00,
2013-03-20 04:45:00,33.4,24.3,29.83,WNW,292,8.0,8.0,69,0.00,,,0.00,0,Wunderground v.1.15,2013-03-20 08:45:00,
2013-03-20 04:55:00,33.3,23.9,29.83,NW,317,10.0,10.0,68,0.00,,,0.00,0,Wunderground v.1.15,2013-03-20 08:55:00,
2013-03-20 05:05:00,33.3,23.9,29.83,West,280,8.0,11.0,68,0.00,,,0.00,0,Wunderground v.1.15,2013-03-20 09:05:00,
2013-03-20 05:10:00,33.2,23.8,29.83,West,269,7.0,7.0,68,0.00,,,0.00,0,Wunderground v.1.15,2013-03-20 09:10:00,
2013-03-20 05:15:00,33.0,23.9,29.84,WNW,291,6.0,7.0,69,0.00,,,0.00,0,Wunderground v.1.15,2013-03-20 09:15:00,
2013-03-20 05:25:00,32.6,23.9,29.84,WNW,283,6.0,9.0,70,0.00,,,0.00,0,Wunderground v.1.15,2013-03-20 09:25:00,
2013-03-20 05:35:00,32.4,23.7,29.84,WNW,300,7.0,8.0,70,0.00,,,0.00,0,Wunderground v.1.15,2013-03-20 09:35:00,
2013-03-20 05:45:00,32.2,23.5,29.84,West,277,6.0,8.0,70,0.00,,,0.00,0,Wunderground v.1.15,2013-03-20 09:45:00,
2013-03-20 05:55:00,31.8,23.5,29.84,WNW,294,5.0,5.0,71,0.00,,,0.00,0,Wunderground v.1.15,2013-03-20 09:55:00,
2013-03-20 06:00:00,31.7,23.7,29.85,WNW,282,6.0,7.0,72,0.00,,,0.00,0,Wunderground v.1.15,2013-03-20 10:00:00,
2013-03-20 06:10:00,31.6,23.6,29.85,West,269,6.0,6.0,72,0.00,,,0.00,0,Wunderground v.1.15,2013-03-20 10:10:00,
2013-03-20 06:20:00,31.5,23.8,29.85,West,276,6.0,6.0,73,0.00,,,0.00,0,Wunderground v.1.15,2013-03-20 10:20:00,
2013-03-20 06:25:00,31.5,24.2,29.84,NW,314,6.0,8.0,74,0.00,,,0.00,0,Wunderground v.1.15,2013-03-20 10:25:00,
2013-03-20 06:30:00,31.6,23.9,29.84,WNW,288,7.0,9.0,73,0.00,,,0.00,0,Wunderground v.1.15,2013-03-20 10:30:00,
2013-03-20 06:40:00,31.8,23.8,29.84,WNW,290,7.0,7.0,72,0.00,,,0.00,0,Wunderground v.1.15,2013-03-20 10:40:00,
2013-03-20 06:45:00,31.7,24.0,29.84,West,265,7.0,8.0,73,0.00,,,0.00,0,Wunderground v.1.15,2013-03-20 10:45:00,
2013-03-20 06:55:00,31.7,24.0,29.84,West,271,7.0,7.0,73,0.00,,,0.00,7,Wunderground v.1.15,2013-03-20 10:55:00,
2013-03-20 07:00:00,31.7,24.0,29.84,West,277,7.0,7.0,73,0.00,,,0.00,11,Wunderground v.1.15,2013-03-20 11:00:00,
2013-03-20 07:10:00,31.8,24.1,29.84,West,272,7.0,12.0,73,0.00,,,0.00,19,Wunderground v.1.15,2013-03-20 11:10:00,
2013-03-20 07:20:00,32.0,24.0,29.84,West,275,8.0,8.0,72,0.00,,,0.00,33,Wunderground v.1.15,2013-03-20 11:20:00,
2013-03-20 07:30:00,32.3,24.3,29.84,West,273,7.0,9.0,72,0.00,,,0.00,56,Wunderground v.1.15,2013-03-20 11:30:00,
2013-03-20 07:40:00,32.6,24.2,29.84,WNW,285,9.0,9.0,71,0.00,,,0.00,84,Wunderground v.1.15,2013-03-20 11:40:00,
2013-03-20 07:45:00,32.8,24.1,29.84,West,277,8.0,9.0,70,0.00,,,0.00,100,Wunderground v.1.15,2013-03-20 11:45:00,
2013-03-20 07:50:00,32.9,24.2,29.84,WNW,283,8.0,8.0,70,0.00,,,0.00,120,Wunderground v.1.15,2013-03-20 11:50:00,
2013-03-20 08:00:00,33.2,24.1,29.84,WNW,292,9.0,10.0,69,0.00,,,0.00,162,Wunderground v.1.15,2013-03-20 12:00:00,
2013-03-20 08:05:00,33.5,24.1,29.84,WNW,294,9.0,10.0,68,0.00,,,0.00,181,Wunderground v.1.15,2013-03-20 12:05:00,
2013-03-20 08:10:00,33.8,24.4,29.84,West,269,8.0,8.0,68,0.00,,,0.00,204,Wunderground v.1.15,2013-03-20 12:10:00,
2013-03-20 08:20:00,34.2,24.4,29.83,WNW,289,11.0,11.0,67,0.00,,,0.00,248,Wunderground v.1.15,2013-03-20 12:20:00,
2013-03-20 08:30:00,34.6,24.4,29.84,WNW,292,10.0,12.0,66,0.00,,,0.00,262,Wunderground v.1.15,2013-03-20 12:30:00,
2013-03-20 08:40:00,35.0,24.4,29.84,NW,317,11.0,11.0,65,0.00,,,0.00,53,Wunderground v.1.15,2013-03-20 12:40:00,
2013-03-20 08:45:00,35.3,24.3,29.83,WNW,292,11.0,13.0,64,0.00,,,0.00,54,Wunderground v.1.15,2013-03-20 12:45:00,
2013-03-20 08:55:00,36.0,24.6,29.84,WNW,300,10.0,18.0,63,0.00,,,0.00,366,Wunderground v.1.15,2013-03-20 12:55:00,
2013-03-20 09:05:00,36.5,24.3,29.84,NW,326,11.0,19.0,61,0.00,,,0.00,397,Wunderground v.1.15,2013-03-20 13:05:00,
2013-03-20 09:10:00,36.6,23.6,29.84,West,277,12.0,12.0,59,0.00,,,0.00,411,Wunderground v.1.15,2013-03-20 13:10:00,
2013-03-20 09:20:00,37.4,24.4,29.83,WNW,285,10.0,10.0,59,0.00,,,0.00,446,Wunderground v.1.15,2013-03-20 13:20:00,
2013-03-20 09:30:00,38.1,24.2,29.83,WNW,297,10.0,11.0,57,0.00,,,0.00,475,Wunderground v.1.15,2013-03-20 13:30:00,
2013-03-20 09:40:00,37.8,23.1,29.83,NNW,331,14.0,14.0,55,0.00,,,0.00,508,Wunderground v.1.15,2013-03-20 13:40:00,
2013-03-20 09:45:00,37.9,23.6,29.83,NW,326,15.0,15.0,56,0.00,,,0.00,513,Wunderground v.1.15,2013-03-20 13:45:00,
2013-03-20 09:55:00,37.8,23.5,29.83,WNW,284,16.0,19.0,56,0.00,,,0.00,550,Wunderground v.1.15,2013-03-20 13:55:00,
2013-03-20 10:00:00,37.9,23.6,29.83,NW,313,14.0,14.0,56,0.00,,,0.00,568,Wunderground v.1.15,2013-03-20 14:00:00,
2013-03-20 10:05:00,38.5,24.6,29.83,WNW,290,13.0,14.0,57,0.00,,,0.00,548,Wunderground v.1.15,2013-03-20 14:05:00,
2013-03-20 10:10:00,38.9,24.1,29.83,WNW,291,13.0,13.0,55,0.00,,,0.00,610,Wunderground v.1.15,2013-03-20 14:10:00,
2013-03-20 10:15:00,38.7,24.3,29.83,NNW,340,14.0,14.0,56,0.00,,,0.00,635,Wunderground v.1.15,2013-03-20 14:15:00,
2013-03-20 10:20:00,38.8,24.0,29.83,West,272,13.0,13.0,55,0.00,,,0.00,640,Wunderground v.1.15,2013-03-20 14:20:00,
2013-03-20 10:25:00,39.1,23.8,29.83,NNW,331,13.0,13.0,54,0.00,,,0.00,705,Wunderground v.1.15,2013-03-20 14:25:00,
2013-03-20 10:35:00,38.8,23.1,29.84,WSW,258,13.0,15.0,53,0.00,,,0.00,183,Wunderground v.1.15,2013-03-20 14:35:00,
2013-03-20 10:40:00,38.3,22.6,29.83,NW,304,14.0,28.0,53,0.00,,,0.00,174,Wunderground v.1.15,2013-03-20 14:40:00,
2013-03-20 10:50:00,38.6,23.4,29.84,NW,304,15.0,17.0,54,0.00,,,0.00,232,Wunderground v.1.15,2013-03-20 14:50:00,
2013-03-20 11:00:00,38.3,24.0,29.84,NW,316,12.0,14.0,56,0.00,,,0.00,244,Wunderground v.1.15,2013-03-20 15:00:00,
2013-03-20 11:05:00,38.1,23.8,29.84,NW,305,14.0,14.0,56,0.00,,,0.00,353,Wunderground v.1.15,2013-03-20 15:05:00,
2013-03-20 11:15:00,38.5,22.8,29.84,WNW,294,15.0,25.0,53,0.00,,,0.00,742,Wunderground v.1.15,2013-03-20 15:15:00,
2013-03-20 11:20:00,39.2,23.9,29.84,NW,308,16.0,18.0,54,0.00,,,0.00,772,Wunderground v.1.15,2013-03-20 15:20:00,
2013-03-20 11:30:00,39.9,23.7,29.84,West,279,15.0,23.0,52,0.00,,,0.00,865,Wunderground v.1.15,2013-03-20 15:30:00,
2013-03-20 11:40:00,40.2,24.0,29.84,NW,306,15.0,23.0,52,0.00,,,0.00,780,Wunderground v.1.15,2013-03-20 15:40:00,
2013-03-20 11:50:00,40.6,24.3,29.83,NW,322,14.0,20.0,52,0.00,,,0.00,773,Wunderground v.1.15,2013-03-20 15:50:00,
2013-03-20 11:55:00,40.5,23.8,29.84,West,275,16.0,20.0,51,0.00,,,0.00,793,Wunderground v.1.15,2013-03-20 15:55:00,
2013-03-20 12:05:00,40.6,23.9,29.83,WNW,303,15.0,16.0,51,0.00,,,0.00,693,Wunderground v.1.15,2013-03-20 16:05:00,
2013-03-20 12:15:00,41.3,25.0,29.83,NW,326,12.0,20.0,52,0.00,,,0.00,779,Wunderground v.1.15,2013-03-20 16:15:00,
2013-03-20 12:25:00,41.2,25.8,29.83,WNW,297,14.0,14.0,54,0.00,,,0.00,860,Wunderground v.1.15,2013-03-20 16:25:00,
2013-03-20 12:30:00,41.6,25.3,29.83,NW,319,13.0,13.0,52,0.00,,,0.00,847,Wunderground v.1.15,2013-03-20 16:30:00,
2013-03-20 12:40:00,40.9,25.1,29.83,WNW,302,14.0,14.0,53,0.00,,,0.00,494,Wunderground v.1.15,2013-03-20 16:40:00,
2013-03-20 12:45:00,40.7,24.0,29.83,NW,315,15.0,15.0,51,0.00,,,0.00,817,Wunderground v.1.15,2013-03-20 16:45:00,
2013-03-20 12:55:00,41.4,24.6,29.83,WNW,286,14.0,20.0,51,0.00,,,0.00,817,Wunderground v.1.15,2013-03-20 16:55:00,
2013-03-20 13:00:00,41.7,25.4,29.83,WNW,303,14.0,16.0,52,0.00,,,0.00,809,Wunderground v.1.15,2013-03-20 17:00:00,
2013-03-20 13:10:00,42.0,25.2,29.82,NNW,340,14.0,14.0,51,0.00,,,0.00,817,Wunderground v.1.15,2013-03-20 17:10:00,
2013-03-20 13:20:00,42.7,25.8,29.82,WNW,303,12.0,12.0,51,0.00,,,0.00,830,Wunderground v.1.15,2013-03-20 17:20:00,
2013-03-20 13:25:00,43.0,25.6,29.82,WNW,298,11.0,12.0,50,0.00,,,0.00,838,Wunderground v.1.15,2013-03-20 17:25:00,
2013-03-20 13:35:00,42.9,26.0,29.82,NNW,340,12.0,12.0,51,0.00,,,0.00,810,Wunderground v.1.15,2013-03-20 17:35:00,
2013-03-20 13:45:00,42.9,26.0,29.81,NNW,344,13.0,17.0,51,0.00,,,0.00,823,Wunderground v.1.15,2013-03-20 17:45:00,
2013-03-20 13:50:00,43.1,25.7,29.81,NW,312,12.0,17.0,50,0.00,,,0.00,802,Wunderground v.1.15,2013-03-20 17:50:00,
2013-03-20 14:00:00,43.3,26.4,29.81,NW,307,11.0,12.0,51,0.00,,,0.00,800,Wunderground v.1.15,2013-03-20 18:00:00,
2013-03-20 14:10:00,44.2,26.2,29.80,WNW,294,10.0,12.0,49,0.00,,,0.00,810,Wunderground v.1.15,2013-03-20 18:10:00,
2013-03-20 14:15:00,44.4,26.9,29.80,NW,311,10.0,15.0,50,0.00,,,0.00,668,Wunderground v.1.15,2013-03-20 18:15:00,
2013-03-20 14:25:00,43.7,26.3,29.80,NNW,348,9.0,10.0,50,0.00,,,0.00,287,Wunderground v.1.15,2013-03-20 18:25:00,
2013-03-20 14:35:00,42.9,26.0,29.80,NW,307,8.0,16.0,51,0.00,,,0.00,308,Wunderground v.1.15,2013-03-20 18:35:00,
2013-03-20 14:40:00,43.0,26.6,29.79,WNW,300,8.0,12.0,52,0.00,,,0.00,626,Wunderground v.1.15,2013-03-20 18:40:00,
2013-03-20 14:50:00,43.1,25.2,29.80,NW,304,8.0,8.0,49,0.00,,,0.00,229,Wunderground v.1.15,2013-03-20 18:50:00,
2013-03-20 14:55:00,42.7,25.8,29.79,NNW,340,7.0,8.0,51,0.00,,,0.00,185,Wunderground v.1.15,2013-03-20 18:55:00,
2013-03-20 15:05:00,41.9,28.6,29.80,SW,232,8.0,9.0,59,0.00,,,0.00,218,Wunderground v.1.15,2013-03-20 19:05:00,
2013-03-20 15:15:00,41.0,28.2,29.80,WSW,246,13.0,18.0,60,0.00,,,0.00,200,Wunderground v.1.15,2013-03-20 19:15:00,
2013-03-20 15:20:00,40.9,26.4,29.79,WNW,290,13.0,13.0,56,0.00,,,0.00,172,Wunderground v.1.15,2013-03-20 19:20:00,
2013-03-20 15:30:00,42.4,29.1,29.79,West,281,11.0,11.0,59,0.00,,,0.00,766,Wunderground v.1.15,2013-03-20 19:30:00,
2013-03-20 15:35:00,42.7,28.5,29.79,WNW,292,12.0,12.0,57,0.00,,,0.00,738,Wunderground v.1.15,2013-03-20 19:35:00,
2013-03-20 15:45:00,42.5,28.8,29.79,West,262,13.0,20.0,58,0.00,,,0.00,232,Wunderground v.1.15,2013-03-20 19:45:00,
2013-03-20 15:55:00,42.8,28.2,29.79,WSW,254,11.0,18.0,56,0.00,,,0.00,617,Wunderground v.1.15,2013-03-20 19:55:00,
2013-03-20 16:05:00,43.8,29.1,29.78,SW,223,11.0,12.0,56,0.00,,,0.00,599,Wunderground v.1.15,2013-03-20 20:05:00,
2013-03-20 16:10:00,43.4,29.2,29.78,WSW,257,11.0,12.0,57,0.00,,,0.00,221,Wunderground v.1.15,2013-03-20 20:10:00,
2013-03-20 16:20:00,43.6,29.8,29.79,WNW,291,11.0,11.0,58,0.00,,,0.00,158,Wunderground v.1.15,2013-03-20 20:20:00,
2013-03-20 16:30:00,42.9,25.5,29.79,West,280,7.0,7.0,50,0.00,,,0.00,137,Wunderground v.1.15,2013-03-20 20:30:00,
2013-03-20 16:40:00,42.2,25.8,29.79,WNW,287,6.0,8.0,52,0.00,,,0.00,93,Wunderground v.1.15,2013-03-20 20:40:00,
2013-03-20 16:45:00,41.9,26.0,29.79,West,275,5.0,8.0,53,0.00,,,0.00,81,Wunderground v.1.15,2013-03-20 20:45:00,
2013-03-20 16:55:00,42.0,26.5,29.79,WNW,300,3.0,5.0,54,0.00,,,0.00,81,Wunderground v.1.15,2013-03-20 20:55:00,
2013-03-20 17:00:00,42.4,27.4,29.79,NW,307,1.0,5.0,55,0.00,,,0.00,113,Wunderground v.1.15,2013-03-20 21:00:00,
2013-03-20 17:05:00,42.5,26.1,29.79,WSW,240,3.0,5.0,52,0.00,,,0.00,155,Wunderground v.1.15,2013-03-20 21:05:00,
2013-03-20 17:15:00,42.4,26.0,29.79,NW,306,4.0,8.0,52,0.00,,,0.00,83,Wunderground v.1.15,2013-03-20 21:15:00,
2013-03-20 17:20:00,42.5,26.1,29.79,West,263,4.0,5.0,52,0.00,,,0.00,98,Wunderground v.1.15,2013-03-20 21:20:00,
2013-03-20 17:30:00,42.4,26.5,29.79,SW,214,4.0,4.0,53,0.00,,,0.00,81,Wunderground v.1.15,2013-03-20 21:30:00,
2013-03-20 17:40:00,42.1,27.5,29.80,WSW,246,3.0,3.0,56,0.00,,,0.00,100,Wunderground v.1.15,2013-03-20 21:40:00,
2013-03-20 17:50:00,42.2,26.3,29.79,SSW,208,3.0,4.0,53,0.00,,,0.00,104,Wunderground v.1.15,2013-03-20 21:50:00,
2013-03-20 17:55:00,42.1,27.9,29.80,WSW,242,4.0,8.0,57,0.00,,,0.00,84,Wunderground v.1.15,2013-03-20 21:55:00,
2013-03-20 18:05:00,41.9,26.0,29.80,WSW,249,6.0,7.0,53,0.00,,,0.00,46,Wunderground v.1.15,2013-03-20 22:05:00,
2013-03-20 18:10:00,41.8,25.9,29.80,WSW,258,7.0,7.0,53,0.00,,,0.00,69,Wunderground v.1.15,2013-03-20 22:10:00,
2013-03-20 18:20:00,41.6,29.1,29.80,WSW,256,8.0,8.0,61,0.00,,,0.00,40,Wunderground v.1.15,2013-03-20 22:20:00,
2013-03-20 18:25:00,41.4,29.3,29.80,SW,224,8.0,8.0,62,0.00,,,0.00,37,Wunderground v.1.15,2013-03-20 22:25:00,
2013-03-20 18:35:00,41.4,28.9,29.80,WSW,247,6.0,11.0,61,0.00,,,0.00,37,Wunderground v.1.15,2013-03-20 22:35:00,
2013-03-20 18:45:00,41.1,30.2,29.80,SW,217,8.0,8.0,65,0.00,,,0.00,18,Wunderground v.1.15,2013-03-20 22:45:00,
2013-03-20 18:50:00,40.8,30.7,29.80,SSW,211,8.0,8.0,67,0.00,,,0.00,16,Wunderground v.1.15,2013-03-20 22:50:00,
2013-03-20 19:00:00,40.5,30.8,29.81,SSW,212,6.0,6.0,68,0.00,,,0.00,5,Wunderground v.1.15,2013-03-20 23:00:00,
2013-03-20 19:10:00,40.4,30.7,29.81,SW,215,6.0,6.0,68,0.00,,,0.00,0,Wunderground v.1.15,2013-03-20 23:10:00,
2013-03-20 19:15:00,40.2,30.5,29.81,SSW,209,6.0,7.0,68,0.00,,,0.00,0,Wunderground v.1.15,2013-03-20 23:15:00,
2013-03-20 19:25:00,40.0,30.6,29.81,SSW,200,5.0,7.0,69,0.00,,,0.00,0,Wunderground v.1.15,2013-03-20 23:25:00,
2013-03-20 19:35:00,39.8,31.2,29.81,SW,214,5.0,5.0,71,0.00,,,0.00,0,Wunderground v.1.15,2013-03-20 23:35:00,
2013-03-20 19:40:00,39.8,31.5,29.81,SSW,211,5.0,5.0,72,0.00,,,0.00,0,Wunderground v.1.15,2013-03-20 23:40:00,
2013-03-20 19:50:00,40.0,31.7,29.81,SSW,210,5.0,6.0,72,0.00,,,0.00,0,Wunderground v.1.15,2013-03-20 23:50:00,
2013-03-20 20:00:00,39.8,31.8,29.80,SW,216,3.0,3.0,73,0.00,,,0.00,0,Wunderground v.1.15,2013-03-21 00:00:00,
2013-03-20 20:10:00,39.5,31.9,29.80,SW,216,1.0,1.0,74,0.00,,,0.00,0,Wunderground v.1.15,2013-03-21 00:10:00,
2013-03-20 20:15:00,39.3,31.7,29.80,SW,216,0.0,1.0,74,0.00,,,0.00,0,Wunderground v.1.15,2013-03-21 00:15:00,
2013-03-20 20:25:00,38.6,31.7,29.81,SW,216,0.0,0.0,76,0.00,,,0.00,0,Wunderground v.1.15,2013-03-21 00:25:00,
2013-03-20 20:30:00,38.3,31.4,29.81,SW,216,0.0,0.0,76,0.00,,,0.00,0,Wunderground v.1.15,2013-03-21 00:30:00,
2013-03-20 20:40:00,37.4,30.8,29.81,SW,216,0.0,0.0,77,0.00,,,0.00,0,Wunderground v.1.15,2013-03-21 00:40:00,
2013-03-20 20:45:00,36.8,30.3,29.81,SW,216,0.0,0.0,77,0.00,,,0.00,0,Wunderground v.1.15,2013-03-21 00:45:00,
2013-03-20 20:50:00,36.2,30.0,29.81,SW,216,0.0,0.0,78,0.00,,,0.00,0,Wunderground v.1.15,2013-03-21 00:50:00,
2013-03-20 21:00:00,35.3,29.4,29.82,SW,216,0.0,0.0,79,0.00,,,0.00,0,Wunderground v.1.15,2013-03-21 01:00:00,
2013-03-20 21:10:00,34.7,29.2,29.82,SW,216,0.0,0.0,80,0.00,,,0.00,0,Wunderground v.1.15,2013-03-21 01:10:00,
2013-03-20 21:20:00,34.2,28.7,29.82,SW,216,0.0,0.0,80,0.00,,,0.00,0,Wunderground v.1.15,2013-03-21 01:20:00,
2013-03-20 21:25:00,34.0,28.8,29.82,SW,216,0.0,0.0,81,0.00,,,0.00,0,Wunderground v.1.15,2013-03-21 01:25:00,
2013-03-20 21:35:00,33.8,28.9,29.82,SW,215,0.0,0.0,82,0.00,,,0.00,0,Wunderground v.1.15,2013-03-21 01:35:00,
2013-03-20 21:45:00,33.6,28.7,29.82,SW,216,0.0,0.0,82,0.00,,,0.00,0,Wunderground v.1.15,2013-03-21 01:45:00,
2013-03-20 21:50:00,33.4,28.5,29.82,SW,216,0.0,0.0,82,0.00,,,0.00,0,Wunderground v.1.15,2013-03-21 01:50:00,
2013-03-20 22:00:00,33.2,28.6,29.82,SW,216,0.0,0.0,83,0.00,,,0.00,0,Wunderground v.1.15,2013-03-21 02:00:00,
2013-03-20 22:05:00,33.2,28.6,29.82,SW,216,0.0,0.0,83,0.00,,,0.00,0,Wunderground v.1.15,2013-03-21 02:05:00,
2013-03-20 22:15:00,33.2,28.6,29.82,SW,216,0.0,0.0,83,0.00,,,0.00,0,Wunderground v.1.15,2013-03-21 02:15:00,
2013-03-20 22:20:00,33.2,28.6,29.82,SW,216,0.0,0.0,83,0.00,,,0.00,0,Wunderground v.1.15,2013-03-21 02:20:00,
2013-03-20 22:30:00,33.3,28.7,29.82,SW,216,0.0,0.0,83,0.00,,,0.00,0,Wunderground v.1.15,2013-03-21 02:30:00,
2013-03-20 22:40:00,33.5,28.9,29.82,SW,216,0.0,0.0,83,0.00,,,0.00,0,Wunderground v.1.15,2013-03-21 02:40:00,
2013-03-20 22:50:00,33.7,29.1,29.82,SW,216,1.0,1.0,83,0.00,,,0.00,0,Wunderground v.1.15,2013-03-21 02:50:00,
2013-03-20 23:00:00,34.0,29.4,29.82,SW,216,1.0,1.0,83,0.00,,,0.00,0,Wunderground v.1.15,2013-03-21 03:00:00,
2013-03-20 23:10:00,34.0,29.4,29.82,SW,215,0.0,0.0,83,0.00,,,0.00,0,Wunderground v.1.15,2013-03-21 03:10:00,
2013-03-20 23:15:00,34.1,29.5,29.82,SW,215,0.0,0.0,83,0.00,,,0.00,0,Wunderground v.1.15,2013-03-21 03:15:00,
2013-03-20 23:25:00,34.3,29.7,29.82,SW,216,0.0,0.0,83,0.00,,,0.00,0,Wunderground v.1.15,2013-03-21 03:25:00,
2013-03-20 23:35:00,34.6,30.0,29.82,SW,216,0.0,0.0,83,0.00,,,0.00,0,Wunderground v.1.15,2013-03-21 03:35:00,
2013-03-20 23:45:00,34.9,30.3,29.82,SW,216,1.0,2.0,83,0.00,,,0.00,0,Wunderground v.1.15,2013-03-21 03:45:00,
2013-03-20 23:50:00,35.1,30.5,29.82,SW,216,1.0,1.0,83,0.00,,,0.00,0,Wunderground v.1.15,2013-03-21 03:50:00,